owner,sensor,date,latitude,longitude,air_pressure(mBar),qcFlag 
DISL,ioos:station:DISL:CATA:1,2019-10-01T00:43:00Z,30.3085,-88.1395,1017.271556,11111222 
DISL,ioos:station:DISL:CATA:1,2019-10-01T01:43:00Z,30.3085,-88.1395,1016.932917,11111222 
DISL,ioos:station:DISL:CATA:1,2019-10-01T02:43:00Z,30.3085,-88.1395,1017.271556,11111222 
DISL,ioos:station:DISL:CATA:1,2019-10-01T03:43:00Z,30.3085,-88.1395,1017.610195,11111222 
DISL,ioos:station:DISL:CATA:1,2019-10-01T04:43:00Z,30.3085,-88.1395,1017.610195,11111222 
DISL,ioos:station:DISL:CATA:1,2019-10-01T05:43:00Z,30.3085,-88.1395,1016.594278,11111222 
DISL,ioos:station:DISL:CATA:1,2019-10-01T06:43:00Z,30.3085,-88.1395,1016.594278,11111222 
DISL,ioos:station:DISL:CATA:1,2019-10-01T07:43:00Z,30.3085,-88.1395,1016.594278,11111222 
DISL,ioos:station:DISL:CATA:1,2019-10-01T08:43:00Z,30.3085,-88.1395,1015.917,11111222 
DISL,ioos:station:DISL:CATA:1,2019-10-01T09:43:00Z,30.3085,-88.1395,1016.255639,11111222 
DISL,ioos:station:DISL:CATA:1,2019-10-01T10:43:00Z,30.3085,-88.1395,1016.932917,11111222 
DISL,ioos:station:DISL:CATA:1,2019-10-01T11:43:00Z,30.3085,-88.1395,1017.610195,11111222 
DISL,ioos:station:DISL:CATA:1,2019-10-01T12:43:00Z,30.3085,-88.1395,1017.610195,11111222 
DISL,ioos:station:DISL:CATA:1,2019-10-01T13:43:00Z,30.3085,-88.1395,1017.948834,11111222 
DISL,ioos:station:DISL:CATA:1,2019-10-01T14:43:00Z,30.3085,-88.1395,1018.626112,11111222 
DISL,ioos:station:DISL:CATA:1,2019-10-01T15:43:00Z,30.3085,-88.1395,1017.948834,11111222 
DISL,ioos:station:DISL:CATA:1,2019-10-01T16:43:00Z,30.3085,-88.1395,1017.948834,11111222 
DISL,ioos:station:DISL:CATA:1,2019-10-01T17:43:00Z,30.3085,-88.1395,1017.271556,11111222 
DISL,ioos:station:DISL:CATA:1,2019-10-01T18:43:00Z,30.3085,-88.1395,1016.932917,11111222 
DISL,ioos:station:DISL:CATA:1,2019-10-01T19:43:00Z,30.3085,-88.1395,1016.255639,11111222 
DISL,ioos:station:DISL:CATA:1,2019-10-01T20:43:00Z,30.3085,-88.1395,1015.917,11111222 
DISL,ioos:station:DISL:CATA:1,2019-10-01T21:43:00Z,30.3085,-88.1395,1015.239722,11111222 
DISL,ioos:station:DISL:CATA:1,2019-10-01T22:43:00Z,30.3085,-88.1395,1015.239722,11111222 
DISL,ioos:station:DISL:CATA:1,2019-10-01T23:43:00Z,30.3085,-88.1395,1015.578361,11111222 
DISL,ioos:station:DISL:CATA:1,2019-10-02T00:43:00Z,30.3085,-88.1395,1015.239722,11111222 
DISL,ioos:station:DISL:CATA:1,2019-10-02T01:43:00Z,30.3085,-88.1395,1015.578361,11111222 
DISL,ioos:station:DISL:CATA:1,2019-10-02T02:43:00Z,30.3085,-88.1395,1015.239722,11111222 
DISL,ioos:station:DISL:CATA:1,2019-10-02T03:43:00Z,30.3085,-88.1395,1015.578361,11111222 
DISL,ioos:station:DISL:CATA:1,2019-10-02T05:43:00Z,30.3085,-88.1395,1015.578361,11111222 
DISL,ioos:station:DISL:CATA:1,2019-10-02T06:43:00Z,30.3085,-88.1395,1015.239722,11111222 
DISL,ioos:station:DISL:CATA:1,2019-10-02T07:43:00Z,30.3085,-88.1395,1015.239722,11111222 
DISL,ioos:station:DISL:CATA:1,2019-10-02T08:43:00Z,30.3085,-88.1395,1014.901083,11111222 
DISL,ioos:station:DISL:CATA:1,2019-10-02T09:43:00Z,30.3085,-88.1395,1014.562444,11111222 
DISL,ioos:station:DISL:CATA:1,2019-10-02T10:43:00Z,30.3085,-88.1395,1015.239722,11111222 
DISL,ioos:station:DISL:CATA:1,2019-10-02T11:43:00Z,30.3085,-88.1395,1016.255639,11111222 
DISL,ioos:station:DISL:CATA:1,2019-10-02T12:43:00Z,30.3085,-88.1395,1016.255639,11111222 
DISL,ioos:station:DISL:CATA:1,2019-10-02T13:43:00Z,30.3085,-88.1395,1016.594278,11111222 
DISL,ioos:station:DISL:CATA:1,2019-10-02T14:43:00Z,30.3085,-88.1395,1016.594278,11111222 
DISL,ioos:station:DISL:CATA:1,2019-10-02T15:43:00Z,30.3085,-88.1395,1016.932917,11111222 
DISL,ioos:station:DISL:CATA:1,2019-10-02T16:43:00Z,30.3085,-88.1395,1016.594278,11111222 
DISL,ioos:station:DISL:CATA:1,2019-10-02T17:43:00Z,30.3085,-88.1395,1016.255639,11111222 
DISL,ioos:station:DISL:CATA:1,2019-10-02T18:43:00Z,30.3085,-88.1395,1015.578361,11111222 
DISL,ioos:station:DISL:CATA:1,2019-10-02T19:43:00Z,30.3085,-88.1395,1014.562444,11111222 
DISL,ioos:station:DISL:CATA:1,2019-10-02T20:43:00Z,30.3085,-88.1395,1014.223805,11111222 
DISL,ioos:station:DISL:CATA:1,2019-10-02T21:43:00Z,30.3085,-88.1395,1013.546527,11111222 
DISL,ioos:station:DISL:CATA:1,2019-10-02T22:43:00Z,30.3085,-88.1395,1013.546527,11111222 
DISL,ioos:station:DISL:CATA:1,2019-10-02T23:43:00Z,30.3085,-88.1395,1013.546527,11111222 
DISL,ioos:station:DISL:CATA:1,2019-10-03T00:43:00Z,30.3085,-88.1395,1013.885166,11111222 
DISL,ioos:station:DISL:CATA:1,2019-10-03T01:43:00Z,30.3085,-88.1395,1014.901083,11111222 
DISL,ioos:station:DISL:CATA:1,2019-10-03T02:43:00Z,30.3085,-88.1395,1015.239722,11111222 
DISL,ioos:station:DISL:CATA:1,2019-10-03T03:43:00Z,30.3085,-88.1395,1015.239722,11111222 
DISL,ioos:station:DISL:CATA:1,2019-10-03T04:43:00Z,30.3085,-88.1395,1014.562444,11111222 
DISL,ioos:station:DISL:CATA:1,2019-10-03T05:43:00Z,30.3085,-88.1395,1014.901083,11111222 
DISL,ioos:station:DISL:CATA:1,2019-10-03T06:43:00Z,30.3085,-88.1395,1014.901083,11111222 
DISL,ioos:station:DISL:CATA:1,2019-10-03T07:43:00Z,30.3085,-88.1395,1014.901083,11111222 
DISL,ioos:station:DISL:CATA:1,2019-10-03T08:44:00Z,30.3085,-88.1395,1014.901083,11111222 
DISL,ioos:station:DISL:CATA:1,2019-10-03T09:44:00Z,30.3085,-88.1395,1015.917,11111222 
DISL,ioos:station:DISL:CATA:1,2019-10-03T10:44:00Z,30.3085,-88.1395,1015.917,11111222 
DISL,ioos:station:DISL:CATA:1,2019-10-03T11:44:00Z,30.3085,-88.1395,1016.255639,11111222 
DISL,ioos:station:DISL:CATA:1,2019-10-03T12:44:00Z,30.3085,-88.1395,1016.594278,11111222 
DISL,ioos:station:DISL:CATA:1,2019-10-03T13:44:00Z,30.3085,-88.1395,1017.271556,11111222 
DISL,ioos:station:DISL:CATA:1,2019-10-03T14:44:00Z,30.3085,-88.1395,1017.271556,11111222 
DISL,ioos:station:DISL:CATA:1,2019-10-03T15:44:00Z,30.3085,-88.1395,1016.594278,11111222 
DISL,ioos:station:DISL:CATA:1,2019-10-03T16:44:00Z,30.3085,-88.1395,1016.932917,11111222 
DISL,ioos:station:DISL:CATA:1,2019-10-03T17:44:00Z,30.3085,-88.1395,1016.255639,11111222 
DISL,ioos:station:DISL:CATA:1,2019-10-03T18:44:00Z,30.3085,-88.1395,1015.578361,11111222 
DISL,ioos:station:DISL:CATA:1,2019-10-03T19:44:00Z,30.3085,-88.1395,1015.239722,11111222 
DISL,ioos:station:DISL:CATA:1,2019-10-03T20:44:00Z,30.3085,-88.1395,1014.562444,11111222 
DISL,ioos:station:DISL:CATA:1,2019-10-03T21:44:00Z,30.3085,-88.1395,1014.562444,11111222 
DISL,ioos:station:DISL:CATA:1,2019-10-03T22:44:00Z,30.3085,-88.1395,1014.562444,11111222 
DISL,ioos:station:DISL:CATA:1,2019-10-03T23:44:00Z,30.3085,-88.1395,1014.562444,11111222 
DISL,ioos:station:DISL:CATA:1,2019-10-04T00:41:00Z,30.3085,-88.1395,1015.239722,11111222 
DISL,ioos:station:DISL:CATA:1,2019-10-04T01:39:00Z,30.3085,-88.1395,1015.578361,11111222 
DISL,ioos:station:DISL:CATA:1,2019-10-04T02:39:00Z,30.3085,-88.1395,1015.917,11111222 
DISL,ioos:station:DISL:CATA:1,2019-10-04T03:39:00Z,30.3085,-88.1395,1016.594278,11111222 
DISL,ioos:station:DISL:CATA:1,2019-10-04T04:38:00Z,30.3085,-88.1395,1016.594278,11111222 
DISL,ioos:station:DISL:CATA:1,2019-10-04T05:38:00Z,30.3085,-88.1395,1016.594278,11111222 
DISL,ioos:station:DISL:CATA:1,2019-10-04T06:38:00Z,30.3085,-88.1395,1016.255639,11111222 
DISL,ioos:station:DISL:CATA:1,2019-10-04T07:37:00Z,30.3085,-88.1395,1016.255639,11111222 
DISL,ioos:station:DISL:CATA:1,2019-10-04T08:36:00Z,30.3085,-88.1395,1016.255639,11111222 
DISL,ioos:station:DISL:CATA:1,2019-10-04T09:36:00Z,30.3085,-88.1395,1016.255639,11111222 
DISL,ioos:station:DISL:CATA:1,2019-10-04T10:35:00Z,30.3085,-88.1395,1015.917,11111222 
DISL,ioos:station:DISL:CATA:1,2019-10-04T11:35:00Z,30.3085,-88.1395,1016.594278,11111222 
DISL,ioos:station:DISL:CATA:1,2019-10-04T12:35:00Z,30.3085,-88.1395,1016.594278,11111222 
DISL,ioos:station:DISL:CATA:1,2019-10-04T13:35:00Z,30.3085,-88.1395,1016.594278,11111222 
DISL,ioos:station:DISL:CATA:1,2019-10-04T14:35:00Z,30.3085,-88.1395,1017.271556,11111222 
DISL,ioos:station:DISL:CATA:1,2019-10-04T15:35:00Z,30.3085,-88.1395,1017.271556,11111222 
DISL,ioos:station:DISL:CATA:1,2019-10-04T16:35:00Z,30.3085,-88.1395,1016.594278,11111222 
DISL,ioos:station:DISL:CATA:1,2019-10-04T18:05:00Z,30.3085,-88.1395,1015.917,11111222 
DISL,ioos:station:DISL:CATA:1,2019-10-04T19:05:00Z,30.3085,-88.1395,1014.901083,11111222 
DISL,ioos:station:DISL:CATA:1,2019-10-04T20:05:00Z,30.3085,-88.1395,1014.562444,11111222 
DISL,ioos:station:DISL:CATA:1,2019-10-04T21:05:00Z,30.3085,-88.1395,1014.223805,11111222 
DISL,ioos:station:DISL:CATA:1,2019-10-04T21:35:00Z,30.3085,-88.1395,1014.223805,11111222 
DISL,ioos:station:DISL:CATA:1,2019-10-04T22:35:00Z,30.3085,-88.1395,1014.562444,11111222 
DISL,ioos:station:DISL:CATA:1,2019-10-04T23:35:00Z,30.3085,-88.1395,1014.223805,11111222 
DISL,ioos:station:DISL:CATA:1,2019-10-05T00:35:00Z,30.3085,-88.1395,1014.223805,11111222 
DISL,ioos:station:DISL:CATA:1,2019-10-05T01:35:00Z,30.3085,-88.1395,1015.578361,11111222 
DISL,ioos:station:DISL:CATA:1,2019-10-05T02:35:00Z,30.3085,-88.1395,1015.917,11111222 
DISL,ioos:station:DISL:CATA:1,2019-10-05T03:35:00Z,30.3085,-88.1395,1015.917,11111222 
DISL,ioos:station:DISL:CATA:1,2019-10-05T04:35:00Z,30.3085,-88.1395,1015.917,11111222 
DISL,ioos:station:DISL:CATA:1,2019-10-05T05:35:00Z,30.3085,-88.1395,1014.901083,11111222 
DISL,ioos:station:DISL:CATA:1,2019-10-05T06:35:00Z,30.3085,-88.1395,1014.562444,11111222 
DISL,ioos:station:DISL:CATA:1,2019-10-05T07:35:00Z,30.3085,-88.1395,1014.901083,11111222 
DISL,ioos:station:DISL:CATA:1,2019-10-05T08:35:00Z,30.3085,-88.1395,1013.885166,11111222 
DISL,ioos:station:DISL:CATA:1,2019-10-05T09:35:00Z,30.3085,-88.1395,1013.885166,11111222 
DISL,ioos:station:DISL:CATA:1,2019-10-05T10:35:00Z,30.3085,-88.1395,1014.223805,11111222 
DISL,ioos:station:DISL:CATA:1,2019-10-05T11:35:00Z,30.3085,-88.1395,1014.562444,11111222 
DISL,ioos:station:DISL:CATA:1,2019-10-05T12:35:00Z,30.3085,-88.1395,1014.901083,11111222 
DISL,ioos:station:DISL:CATA:1,2019-10-05T13:35:00Z,30.3085,-88.1395,1015.578361,11111222 
DISL,ioos:station:DISL:CATA:1,2019-10-05T14:35:00Z,30.3085,-88.1395,1015.917,11111222 
DISL,ioos:station:DISL:CATA:1,2019-10-05T15:35:00Z,30.3085,-88.1395,1016.594278,11111222 
DISL,ioos:station:DISL:CATA:1,2019-10-05T16:35:00Z,30.3085,-88.1395,1015.917,11111222 
DISL,ioos:station:DISL:CATA:1,2019-10-05T17:35:00Z,30.3085,-88.1395,1015.239722,11111222 
DISL,ioos:station:DISL:CATA:1,2019-10-05T18:35:00Z,30.3085,-88.1395,1014.562444,11111222 
DISL,ioos:station:DISL:CATA:1,2019-10-05T19:35:00Z,30.3085,-88.1395,1014.223805,11111222 
DISL,ioos:station:DISL:CATA:1,2019-10-05T20:35:00Z,30.3085,-88.1395,1013.885166,11111222 
DISL,ioos:station:DISL:CATA:1,2019-10-05T21:35:00Z,30.3085,-88.1395,1013.885166,11111222 
DISL,ioos:station:DISL:CATA:1,2019-10-05T22:35:00Z,30.3085,-88.1395,1013.546527,11111222 
DISL,ioos:station:DISL:CATA:1,2019-10-05T23:35:00Z,30.3085,-88.1395,1013.885166,11111222 
DISL,ioos:station:DISL:CATA:1,2019-10-06T00:35:00Z,30.3085,-88.1395,1014.562444,11111222 
DISL,ioos:station:DISL:CATA:1,2019-10-06T01:35:00Z,30.3085,-88.1395,1015.239722,11111222 
DISL,ioos:station:DISL:CATA:1,2019-10-06T02:35:00Z,30.3085,-88.1395,1015.917,11111222 
DISL,ioos:station:DISL:CATA:1,2019-10-06T03:35:00Z,30.3085,-88.1395,1015.578361,11111222 
DISL,ioos:station:DISL:CATA:1,2019-10-06T04:35:00Z,30.3085,-88.1395,1015.239722,11111222 
DISL,ioos:station:DISL:CATA:1,2019-10-06T05:35:00Z,30.3085,-88.1395,1015.239722,11111222 
DISL,ioos:station:DISL:CATA:1,2019-10-06T06:35:00Z,30.3085,-88.1395,1014.562444,11111222 
DISL,ioos:station:DISL:CATA:1,2019-10-06T07:35:00Z,30.3085,-88.1395,1015.239722,11111222 
DISL,ioos:station:DISL:CATA:1,2019-10-06T08:35:00Z,30.3085,-88.1395,1014.562444,11111222 
DISL,ioos:station:DISL:CATA:1,2019-10-06T09:35:00Z,30.3085,-88.1395,1015.239722,11111222 
DISL,ioos:station:DISL:CATA:1,2019-10-06T10:35:00Z,30.3085,-88.1395,1015.578361,11111222 
DISL,ioos:station:DISL:CATA:1,2019-10-06T11:35:00Z,30.3085,-88.1395,1016.255639,11111222 
DISL,ioos:station:DISL:CATA:1,2019-10-06T12:35:00Z,30.3085,-88.1395,1016.594278,11111222 
DISL,ioos:station:DISL:CATA:1,2019-10-06T13:35:00Z,30.3085,-88.1395,1016.932917,11111222 
DISL,ioos:station:DISL:CATA:1,2019-10-06T14:35:00Z,30.3085,-88.1395,1017.948834,11111222 
DISL,ioos:station:DISL:CATA:1,2019-10-06T15:35:00Z,30.3085,-88.1395,1017.948834,11111222 
DISL,ioos:station:DISL:CATA:1,2019-10-06T16:35:00Z,30.3085,-88.1395,1017.610195,11111222 
DISL,ioos:station:DISL:CATA:1,2019-10-06T17:35:00Z,30.3085,-88.1395,1017.948834,11111222 
DISL,ioos:station:DISL:CATA:1,2019-10-06T18:35:00Z,30.3085,-88.1395,1016.932917,11111222 
DISL,ioos:station:DISL:CATA:1,2019-10-06T19:35:00Z,30.3085,-88.1395,1016.255639,11111222 
DISL,ioos:station:DISL:CATA:1,2019-10-06T20:35:00Z,30.3085,-88.1395,1016.255639,11111222 
DISL,ioos:station:DISL:CATA:1,2019-10-06T21:35:00Z,30.3085,-88.1395,1016.255639,11111222 
DISL,ioos:station:DISL:CATA:1,2019-10-06T22:35:00Z,30.3085,-88.1395,1015.578361,11111222 
DISL,ioos:station:DISL:CATA:1,2019-10-06T23:35:00Z,30.3085,-88.1395,1015.578361,11111222 
DISL,ioos:station:DISL:CATA:1,2019-10-07T00:35:00Z,30.3085,-88.1395,1015.578361,11111222 
DISL,ioos:station:DISL:CATA:1,2019-10-07T01:35:00Z,30.3085,-88.1395,1015.917,11111222 
DISL,ioos:station:DISL:CATA:1,2019-10-07T02:35:00Z,30.3085,-88.1395,1016.255639,11111222 
DISL,ioos:station:DISL:CATA:1,2019-10-07T03:35:00Z,30.3085,-88.1395,1016.255639,11111222 
DISL,ioos:station:DISL:CATA:1,2019-10-07T04:35:00Z,30.3085,-88.1395,1016.594278,11111222 
DISL,ioos:station:DISL:CATA:1,2019-10-07T05:35:00Z,30.3085,-88.1395,1015.578361,11111222 
DISL,ioos:station:DISL:CATA:1,2019-10-07T06:35:00Z,30.3085,-88.1395,1015.239722,11111222 
DISL,ioos:station:DISL:CATA:1,2019-10-07T07:35:00Z,30.3085,-88.1395,1014.562444,11111222 
DISL,ioos:station:DISL:CATA:1,2019-10-07T08:35:00Z,30.3085,-88.1395,1014.901083,11111222 
DISL,ioos:station:DISL:CATA:1,2019-10-07T09:35:00Z,30.3085,-88.1395,1015.239722,11111222 
DISL,ioos:station:DISL:CATA:1,2019-10-07T10:35:00Z,30.3085,-88.1395,1014.901083,11111222 
DISL,ioos:station:DISL:CATA:1,2019-10-07T11:35:00Z,30.3085,-88.1395,1015.239722,11111222 
DISL,ioos:station:DISL:CATA:1,2019-10-07T12:35:00Z,30.3085,-88.1395,1015.578361,11111222 
DISL,ioos:station:DISL:CATA:1,2019-10-07T18:05:00Z,30.3085,-88.1395,1014.223805,11111222 
DISL,ioos:station:DISL:CATA:1,2019-10-07T19:35:00Z,30.3085,-88.1395,1012.869249,11111222 
DISL,ioos:station:DISL:CATA:1,2019-10-07T20:35:00Z,30.3085,-88.1395,1012.869249,11111222 
DISL,ioos:station:DISL:CATA:1,2019-10-07T21:35:00Z,30.3085,-88.1395,1012.869249,11111222 
DISL,ioos:station:DISL:CATA:1,2019-10-07T22:35:00Z,30.3085,-88.1395,1012.869249,11111222 
DISL,ioos:station:DISL:CATA:1,2019-10-07T23:35:00Z,30.3085,-88.1395,1013.207888,11111222 
DISL,ioos:station:DISL:CATA:1,2019-10-08T00:35:00Z,30.3085,-88.1395,1013.885166,11111222 
DISL,ioos:station:DISL:CATA:1,2019-10-08T01:35:00Z,30.3085,-88.1395,1014.562444,11111222 
DISL,ioos:station:DISL:CATA:1,2019-10-08T02:35:00Z,30.3085,-88.1395,1014.562444,11111222 
DISL,ioos:station:DISL:CATA:1,2019-10-08T03:35:00Z,30.3085,-88.1395,1014.223805,11111222 
DISL,ioos:station:DISL:CATA:1,2019-10-08T04:35:00Z,30.3085,-88.1395,1014.223805,11111222 
DISL,ioos:station:DISL:CATA:1,2019-10-08T05:35:00Z,30.3085,-88.1395,1013.885166,11111222 
DISL,ioos:station:DISL:CATA:1,2019-10-08T06:35:00Z,30.3085,-88.1395,1013.546527,11111222 
DISL,ioos:station:DISL:CATA:1,2019-10-08T07:35:00Z,30.3085,-88.1395,1013.546527,11111222 
DISL,ioos:station:DISL:CATA:1,2019-10-08T08:35:00Z,30.3085,-88.1395,1013.546527,11111222 
DISL,ioos:station:DISL:CATA:1,2019-10-08T09:35:00Z,30.3085,-88.1395,1013.885166,11111222 
DISL,ioos:station:DISL:CATA:1,2019-10-08T10:35:00Z,30.3085,-88.1395,1013.885166,11111222 
DISL,ioos:station:DISL:CATA:1,2019-10-08T11:35:00Z,30.3085,-88.1395,1014.223805,11111222 
DISL,ioos:station:DISL:CATA:1,2019-10-08T12:35:00Z,30.3085,-88.1395,1015.239722,11111222 
DISL,ioos:station:DISL:CATA:1,2019-10-08T13:35:00Z,30.3085,-88.1395,1015.239722,11111222 
DISL,ioos:station:DISL:CATA:1,2019-10-08T14:35:00Z,30.3085,-88.1395,1016.255639,11111222 
DISL,ioos:station:DISL:CATA:1,2019-10-08T15:35:00Z,30.3085,-88.1395,1015.917,11111222 
DISL,ioos:station:DISL:CATA:1,2019-10-08T16:35:00Z,30.3085,-88.1395,1015.578361,11111222 
DISL,ioos:station:DISL:CATA:1,2019-10-08T17:35:00Z,30.3085,-88.1395,1015.239722,11111222 
DISL,ioos:station:DISL:CATA:1,2019-10-08T19:05:00Z,30.3085,-88.1395,1013.885166,11111222 
DISL,ioos:station:DISL:CATA:1,2019-10-08T20:05:00Z,30.3085,-88.1395,1014.223805,11111222 
DISL,ioos:station:DISL:CATA:1,2019-10-08T21:05:00Z,30.3085,-88.1395,1013.207888,11111222 
DISL,ioos:station:DISL:CATA:1,2019-10-08T21:35:00Z,30.3085,-88.1395,1013.207888,11111222 
DISL,ioos:station:DISL:CATA:1,2019-10-08T22:35:00Z,30.3085,-88.1395,1013.885166,11111222 
DISL,ioos:station:DISL:CATA:1,2019-10-08T23:35:00Z,30.3085,-88.1395,1014.223805,11111222 
DISL,ioos:station:DISL:CATA:1,2019-10-09T00:35:00Z,30.3085,-88.1395,1014.223805,11111222 
DISL,ioos:station:DISL:CATA:1,2019-10-09T01:35:00Z,30.3085,-88.1395,1014.562444,11111222 
DISL,ioos:station:DISL:CATA:1,2019-10-09T03:05:00Z,30.3085,-88.1395,1015.239722,11111222 
DISL,ioos:station:DISL:CATA:1,2019-10-09T03:35:00Z,30.3085,-88.1395,1015.239722,11111222 
DISL,ioos:station:DISL:CATA:1,2019-10-09T04:35:00Z,30.3085,-88.1395,1014.901083,11111222 
DISL,ioos:station:DISL:CATA:1,2019-10-09T05:35:00Z,30.3085,-88.1395,1014.901083,11111222 
DISL,ioos:station:DISL:CATA:1,2019-10-09T06:35:00Z,30.3085,-88.1395,1014.562444,11111222 
DISL,ioos:station:DISL:CATA:1,2019-10-09T07:35:00Z,30.3085,-88.1395,1014.223805,11111222 
DISL,ioos:station:DISL:CATA:1,2019-10-09T08:35:00Z,30.3085,-88.1395,1014.223805,11111222 
DISL,ioos:station:DISL:CATA:1,2019-10-09T09:35:00Z,30.3085,-88.1395,1014.223805,11111222 
DISL,ioos:station:DISL:CATA:1,2019-10-09T10:35:00Z,30.3085,-88.1395,1014.562444,11111222 
DISL,ioos:station:DISL:CATA:1,2019-10-09T11:35:00Z,30.3085,-88.1395,1014.562444,11111222 
DISL,ioos:station:DISL:CATA:1,2019-10-09T12:35:00Z,30.3085,-88.1395,1015.239722,11111222 
DISL,ioos:station:DISL:CATA:1,2019-10-09T13:35:00Z,30.3085,-88.1395,1016.255639,11111222 
DISL,ioos:station:DISL:CATA:1,2019-10-09T14:35:00Z,30.3085,-88.1395,1016.594278,11111222 
DISL,ioos:station:DISL:CATA:1,2019-10-09T15:35:00Z,30.3085,-88.1395,1016.594278,11111222 
DISL,ioos:station:DISL:CATA:1,2019-10-09T16:35:00Z,30.3085,-88.1395,1016.594278,11111222 
DISL,ioos:station:DISL:CATA:1,2019-10-09T17:35:00Z,30.3085,-88.1395,1015.578361,11111222 
DISL,ioos:station:DISL:CATA:1,2019-10-09T18:35:00Z,30.3085,-88.1395,1014.562444,11111222 
DISL,ioos:station:DISL:CATA:1,2019-10-09T19:35:00Z,30.3085,-88.1395,1014.562444,11111222 
DISL,ioos:station:DISL:CATA:1,2019-10-09T20:35:00Z,30.3085,-88.1395,1014.223805,11111222 
DISL,ioos:station:DISL:CATA:1,2019-10-09T21:35:00Z,30.3085,-88.1395,1013.885166,11111222 
DISL,ioos:station:DISL:CATA:1,2019-10-09T22:35:00Z,30.3085,-88.1395,1013.885166,11111222 
DISL,ioos:station:DISL:CATA:1,2019-10-09T23:35:00Z,30.3085,-88.1395,1014.562444,11111222 
DISL,ioos:station:DISL:CATA:1,2019-10-10T02:35:00Z,30.3085,-88.1395,1015.917,11111222 
DISL,ioos:station:DISL:CATA:1,2019-10-10T03:35:00Z,30.3085,-88.1395,1015.917,11111222 
DISL,ioos:station:DISL:CATA:1,2019-10-10T04:35:00Z,30.3085,-88.1395,1015.578361,11111222 
DISL,ioos:station:DISL:CATA:1,2019-10-10T05:35:00Z,30.3085,-88.1395,1015.917,11111222 
DISL,ioos:station:DISL:CATA:1,2019-10-10T06:35:00Z,30.3085,-88.1395,1015.578361,11111222 
DISL,ioos:station:DISL:CATA:1,2019-10-10T07:35:00Z,30.3085,-88.1395,1015.239722,11111222 
DISL,ioos:station:DISL:CATA:1,2019-10-10T08:35:00Z,30.3085,-88.1395,1015.578361,11111222 
DISL,ioos:station:DISL:CATA:1,2019-10-10T09:35:00Z,30.3085,-88.1395,1015.578361,11111222 
DISL,ioos:station:DISL:CATA:1,2019-10-10T10:35:00Z,30.3085,-88.1395,1015.578361,11111222 
DISL,ioos:station:DISL:CATA:1,2019-10-10T11:35:00Z,30.3085,-88.1395,1016.594278,11111222 
DISL,ioos:station:DISL:CATA:1,2019-10-10T12:35:00Z,30.3085,-88.1395,1016.594278,11111222 
DISL,ioos:station:DISL:CATA:1,2019-10-10T13:35:00Z,30.3085,-88.1395,1016.932917,11111222 
DISL,ioos:station:DISL:CATA:1,2019-10-10T14:35:00Z,30.3085,-88.1395,1017.610195,11111222 
DISL,ioos:station:DISL:CATA:1,2019-10-10T15:35:00Z,30.3085,-88.1395,1017.948834,11111222 
DISL,ioos:station:DISL:CATA:1,2019-10-10T16:35:00Z,30.3085,-88.1395,1017.610195,11111222 
DISL,ioos:station:DISL:CATA:1,2019-10-10T17:35:00Z,30.3085,-88.1395,1017.271556,11111222 
DISL,ioos:station:DISL:CATA:1,2019-10-10T18:35:00Z,30.3085,-88.1395,1016.255639,11111222 
DISL,ioos:station:DISL:CATA:1,2019-10-10T19:35:00Z,30.3085,-88.1395,1015.578361,11111222 
DISL,ioos:station:DISL:CATA:1,2019-10-10T20:35:00Z,30.3085,-88.1395,1014.901083,11111222 
DISL,ioos:station:DISL:CATA:1,2019-10-10T21:35:00Z,30.3085,-88.1395,1014.901083,11111222 
DISL,ioos:station:DISL:CATA:1,2019-10-10T22:35:00Z,30.3085,-88.1395,1015.578361,11111222 
DISL,ioos:station:DISL:CATA:1,2019-10-10T23:35:00Z,30.3085,-88.1395,1014.223805,11111222 
DISL,ioos:station:DISL:CATA:1,2019-10-11T00:35:00Z,30.3085,-88.1395,1014.901083,11111222 
DISL,ioos:station:DISL:CATA:1,2019-10-11T01:35:00Z,30.3085,-88.1395,1015.578361,11111222 
DISL,ioos:station:DISL:CATA:1,2019-10-11T02:35:00Z,30.3085,-88.1395,1015.917,11111222 
DISL,ioos:station:DISL:CATA:1,2019-10-11T03:35:00Z,30.3085,-88.1395,1015.917,11111222 
DISL,ioos:station:DISL:CATA:1,2019-10-11T04:35:00Z,30.3085,-88.1395,1016.255639,11111222 
DISL,ioos:station:DISL:CATA:1,2019-10-11T05:35:00Z,30.3085,-88.1395,1015.578361,11111222 
DISL,ioos:station:DISL:CATA:1,2019-10-11T06:35:00Z,30.3085,-88.1395,1015.578361,11111222 
DISL,ioos:station:DISL:CATA:1,2019-10-11T07:35:00Z,30.3085,-88.1395,1015.239722,11111222 
DISL,ioos:station:DISL:CATA:1,2019-10-11T08:35:00Z,30.3085,-88.1395,1014.901083,11111222 
DISL,ioos:station:DISL:CATA:1,2019-10-11T09:35:00Z,30.3085,-88.1395,1015.578361,11111222 
DISL,ioos:station:DISL:CATA:1,2019-10-11T10:35:00Z,30.3085,-88.1395,1015.578361,11111222 
DISL,ioos:station:DISL:CATA:1,2019-10-11T11:35:00Z,30.3085,-88.1395,1015.578361,11111222 
DISL,ioos:station:DISL:CATA:1,2019-10-11T12:35:00Z,30.3085,-88.1395,1016.255639,11111222 
DISL,ioos:station:DISL:CATA:1,2019-10-11T13:35:00Z,30.3085,-88.1395,1016.594278,11111222 
DISL,ioos:station:DISL:CATA:1,2019-10-11T14:35:00Z,30.3085,-88.1395,1016.594278,11111222 
DISL,ioos:station:DISL:CATA:1,2019-10-11T15:35:00Z,30.3085,-88.1395,1016.932917,11111222 
DISL,ioos:station:DISL:CATA:1,2019-10-11T16:35:00Z,30.3085,-88.1395,1016.932917,11111222 
DISL,ioos:station:DISL:CATA:1,2019-10-11T17:35:00Z,30.3085,-88.1395,1016.255639,11111222 
DISL,ioos:station:DISL:CATA:1,2019-10-11T18:35:00Z,30.3085,-88.1395,1015.578361,11111222 
DISL,ioos:station:DISL:CATA:1,2019-10-11T19:35:00Z,30.3085,-88.1395,1015.578361,11111222 
DISL,ioos:station:DISL:CATA:1,2019-10-11T20:35:00Z,30.3085,-88.1395,1014.223805,11111222 
DISL,ioos:station:DISL:CATA:1,2019-10-11T21:35:00Z,30.3085,-88.1395,1014.901083,11111222 
DISL,ioos:station:DISL:CATA:1,2019-10-11T22:35:00Z,30.3085,-88.1395,1015.239722,11111222 
DISL,ioos:station:DISL:CATA:1,2019-10-11T23:35:00Z,30.3085,-88.1395,1015.239722,11111222 
DISL,ioos:station:DISL:CATA:1,2019-10-12T00:35:00Z,30.3085,-88.1395,1015.578361,11111222 
DISL,ioos:station:DISL:CATA:1,2019-10-12T01:35:00Z,30.3085,-88.1395,1016.255639,11111222 
DISL,ioos:station:DISL:CATA:1,2019-10-12T02:35:00Z,30.3085,-88.1395,1016.594278,11111222 
DISL,ioos:station:DISL:CATA:1,2019-10-12T13:47:00Z,30.3085,-88.1395,1016.932917,11111222 
DISL,ioos:station:DISL:CATA:1,2019-10-12T15:35:00Z,30.3085,-88.1395,1017.948834,11111222 
DISL,ioos:station:DISL:CATA:1,2019-10-12T16:35:00Z,30.3085,-88.1395,1017.610195,11111222 
DISL,ioos:station:DISL:CATA:1,2019-10-12T17:35:00Z,30.3085,-88.1395,1016.594278,11111222 
DISL,ioos:station:DISL:CATA:1,2019-10-12T18:35:00Z,30.3085,-88.1395,1016.594278,11111222 
DISL,ioos:station:DISL:CATA:1,2019-10-12T19:35:00Z,30.3085,-88.1395,1016.255639,11111222 
DISL,ioos:station:DISL:CATA:1,2019-10-12T20:35:00Z,30.3085,-88.1395,1015.917,11111222 